Weather History for KPQL - March, 2013

Change the Weather History Date:

Monday, March 18, 2013

  Actual Average Record
Temperature  
Mean Temperature 70 °F -  
Max Temperature 79 °F 70 °F 82 °F (1955)
Min Temperature 64 °F 52 °F 32 °F (1988)
Cooling Degree Days 6    
Growing Degree Days 20 (Base 50)    
Moisture  
Dew Point 65 °F    
Average Humidity 86    
Maximum Humidity 100    
Minimum Humidity 69    
Precipitation  
Precipitation 0.00 in - - ()
Sea Level Pressure  
Sea Level Pressure 29.88 in    
Wind  
Wind Speed 7 mph (SSE)    
Max Wind Speed 14 mph    
Max Gust Speed 16 mph    
Visibility 7 miles    
Events Fog    
Averages and records for this station are not official NWS values.
T = Trace of Precipitation, MM = Missing Value Source: NWS Daily Summary

Daily Weather History Graph

Daily Weather History Graph

Search for Another Location

Airport or City:

Trip Planner

Search our weather history database for the weather conditions in past years. The results will help you decide how hot, cold, wet, or windy it might be!

Date:

Astronomy

Mar. 18, 2013 Rise Set
Actual Time 7:00 AM CDT 7:04 PM CDT
Civil Twilight 6:36 AM CDT 7:28 PM CDT
Nautical Twilight 6:08 AM CDT 7:56 PM CDT
Astronomical Twilight 5:40 AM CDT 8:24 PM CDT
Moon 11:22 AM CDT (3/18) 12:41 AM CDT (3/18)
Length of Visible Light 12h 52m
Length of Day
12h 04m
Waxing Crescent, 41% of the Moon is Illuminated
Mar 18
Waxing Crescent
Mar 19
First Quarter
Mar 27
Full
Apr 2
Last Quarter
Apr 10
New

Hourly Weather History & Observations

Time (CDT) Temp. Dew Point Humidity Pressure Visibility Wind Dir Wind Speed Gust Speed Precip Events Conditions
12:53 AM 64.0 °F 60.1 °F 87% 29.90 in 10.0 mi South 6.9 mph - N/A   Overcast
1:53 AM 66.9 °F 59.0 °F 76% 29.88 in 10.0 mi SSE 8.1 mph - N/A   Overcast
2:53 AM 66.0 °F 60.1 °F 81% 29.89 in 10.0 mi SSE 6.9 mph - N/A   Overcast
3:53 AM 64.9 °F 60.1 °F 84% 29.87 in 10.0 mi SSE 13.8 mph - N/A   Mostly Cloudy
4:53 AM 66.0 °F 62.1 °F 87% 29.88 in 10.0 mi SSE 8.1 mph - N/A   Overcast
5:53 AM 66.0 °F 63.0 °F 90% 29.90 in 10.0 mi SE 8.1 mph - N/A   Overcast
6:53 AM 66.0 °F 63.0 °F 90% 29.90 in 10.0 mi SE 6.9 mph - N/A   Overcast
7:13 AM 66.2 °F 62.6 °F 88% 29.90 in 10.0 mi SE 5.8 mph - N/A   Overcast
7:35 AM 66.2 °F 62.6 °F 88% 29.90 in 9.0 mi SE 8.1 mph - N/A   Mostly Cloudy
7:48 AM 66.2 °F 62.6 °F 88% 29.91 in 9.0 mi SE 6.9 mph - N/A   Mostly Cloudy
7:53 AM 66.9 °F 63.0 °F 87% 29.91 in 9.0 mi SE 8.1 mph - N/A   Mostly Cloudy
8:22 AM 68.0 °F 64.4 °F 88% 29.91 in 10.0 mi SE 10.4 mph - N/A   Overcast
8:42 AM 68.0 °F 64.4 °F 88% 29.91 in 10.0 mi SSE 5.8 mph - N/A   Overcast
8:53 AM 68.0 °F 64.0 °F 87% 29.92 in 10.0 mi SSE 8.1 mph - N/A   Overcast
9:53 AM 70.0 °F 64.9 °F 84% 29.92 in 10.0 mi SSE 10.4 mph - N/A   Overcast
10:13 AM 71.6 °F 64.4 °F 78% 29.91 in 10.0 mi SSE 9.2 mph - N/A   Overcast
10:30 AM 71.6 °F 66.2 °F 83% 29.92 in 10.0 mi SSE 9.2 mph - N/A   Overcast
10:53 AM 73.0 °F 66.0 °F 79% 29.92 in 10.0 mi SSE 8.1 mph - N/A   Overcast
11:53 AM 73.9 °F 66.9 °F 79% 29.92 in 10.0 mi South 10.4 mph - N/A   Overcast
12:53 PM 77.0 °F 68.0 °F 74% 29.90 in 10.0 mi SSW 9.2 mph 16.1 mph N/A   Mostly Cloudy
1:53 PM 77.0 °F 68.0 °F 74% 29.87 in 10.0 mi South 11.5 mph 16.1 mph N/A   Mostly Cloudy
2:14 PM 77.0 °F 66.2 °F 69% 29.85 in 10.0 mi South 9.2 mph - N/A   Partly Cloudy
2:53 PM 77.0 °F 66.0 °F 69% 29.83 in 10.0 mi SSW 11.5 mph - N/A   Clear
3:53 PM 75.9 °F 66.0 °F 71% 29.82 in 10.0 mi South 9.2 mph - N/A   Scattered Clouds
4:53 PM 75.0 °F 66.0 °F 73% 29.81 in 10.0 mi SW 6.9 mph - N/A   Clear
5:53 PM 75.0 °F 66.0 °F 73% 29.80 in 10.0 mi South 6.9 mph - N/A   Clear
6:53 PM 72.0 °F 66.0 °F 81% 29.81 in 10.0 mi South 3.5 mph - N/A   Clear
7:31 PM 69.8 °F 66.2 °F 88% 29.83 in 8.0 mi SE 3.5 mph - N/A   Mostly Cloudy
7:53 PM 69.1 °F 66.9 °F 93% 29.83 in 7.0 mi Calm Calm - N/A   Overcast
8:53 PM 69.1 °F 66.9 °F 93% 29.86 in 5.0 mi SE 5.8 mph - N/A   Overcast
9:00 PM 69.8 °F 66.2 °F 88% 29.85 in 1.5 mi SE 5.8 mph - N/A   Overcast
9:11 PM 68.0 °F 66.2 °F 94% 29.86 in 0.5 mi SE 4.6 mph - N/A Fog Fog
9:53 PM 68.0 °F 66.9 °F 96% 29.86 in 0.5 mi SSE 4.6 mph - N/A Fog Fog
10:13 PM 68.0 °F 66.2 °F 94% 29.87 in 1.0 mi SSE 4.6 mph - N/A   Mist
10:32 PM 68.0 °F 66.2 °F 94% 29.87 in 2.5 mi South 3.5 mph - N/A   Overcast
10:49 PM 68.0 °F 66.2 °F 94% 29.88 in 4.0 mi Calm Calm - N/A   Scattered Clouds
10:53 PM 66.9 °F 66.0 °F 97% 29.89 in 3.0 mi Calm Calm - N/A   Scattered Clouds
10:58 PM 66.2 °F 64.4 °F 94% 29.89 in 1.8 mi Calm Calm - N/A   Mostly Cloudy
11:07 PM 66.2 °F 64.4 °F 94% 29.89 in 2.5 mi Calm Calm - N/A   Mostly Cloudy
11:19 PM 66.2 °F 64.4 °F 94% 29.88 in 1.8 mi Calm Calm - N/A   Overcast
11:24 PM 66.2 °F 66.2 °F 100% 29.88 in 3.0 mi Calm Calm - N/A   Overcast
11:38 PM 68.0 °F 66.2 °F 94% 29.87 in 1.5 mi South 4.6 mph - N/A   Overcast
11:46 PM 68.0 °F 66.2 °F 94% 29.87 in 0.2 mi Calm Calm - N/A Fog Fog
11:53 PM 68.0 °F 66.9 °F 96% 29.89 in 0.2 mi Calm Calm - N/A Fog Fog